Location: Unspecified
(0.0000°N, 0.0000°E)
Time: 16:23:22
(UTC+00:00)

DMSP 5D-3 F19 (USA 249) - Visible Passes

Search period start: 20 May 2019 00:00
Search period end: 30 May 2019 00:00
Orbit: 838 x 854 km, 98.8° (Epoch: 19 May)

Date Brightness Start Highest point End Pass type
(mag) Time Alt. Az. Time Alt. Az. Time Alt. Az.
20 May ? 05:15:13 10° ENE 05:18:16 15° ESE 05:21:19 10° SE visible
20 May ? 19:40:57 10° WSW 19:42:10 11° WSW 19:43:23 10° W visible
21 May ? 19:25:47 10° SW 19:29:01 16° WSW 19:32:16 10° WNW visible
22 May ? 19:11:40 10° SSW 19:15:52 23° WSW 19:20:04 10° NW visible
23 May ? 18:57:54 10° SSW 19:02:42 33° WSW 19:07:30 10° NW visible
24 May ? 18:44:20 10° S 18:49:32 46° WSW 18:54:43 10° NNW visible
25 May ? 18:30:58 10° S 18:36:22 67° WSW 18:41:45 10° NNW visible
26 May ? 18:17:44 10° SSE 18:23:11 86° ENE 18:28:38 10° NNW visible
27 May ? 05:22:36 10° ENE 05:26:24 19° ESE 05:30:11 10° SSE visible
28 May ? 05:10:47 10° ENE 05:13:15 13° ESE 05:15:43 10° SE visible
28 May ? 19:34:54 10° SW 19:37:09 13° WSW 19:39:22 10° W visible
29 May ? 19:20:20 10° SW 19:23:59 18° WSW 19:27:38 10° WNW visible
